User: anonymous   Login
Location: Caltech
(34.1382°N, 118.1253°W)
Time: 00:19:47
(UTC-07:00)
Language:

Cosmos 2219 - Orbit

View from above orbital plane
View from above orbital plane
View from above satellite
View from above satellite

Ground track
Ground track

The orbit data is extracted from the following two-line orbital elements,

1 22219U 92076A   16211.94758461 +.00000217 +00000-0 +13971-3 0  9999
2 22219 071.0594 150.8170 0018028 166.2174 193.9444 14.13588017222358
Epoch (UTC): 29 July 2016 22:44:31
Eccentricity: 0.0018028
inclination: 71.0594°
perigee height: 834 km
apogee height: 860 km
right ascension of ascending node: 150.8170°
argument of perigee: 166.2174°
revolutions per day: 14.13588017
mean anomaly at epoch: 193.9444°
orbit number at epoch: 22235

The dashed part of the orbit path shows where the satellite is in the earth's shadow,  

DLR